User: anonymous   Login
Location: Unspecified
(0.0000°N, 0.0000°E)
Time: 19:19:21
(UTC+00:00)
Language:

Cosmos 1803 - Orbit

View from above orbital plane
View from above orbital plane
View from above satellite
View from above satellite

Ground track
Ground track

The orbit data is extracted from the following two-line orbital elements,

1 17177U 86094A   18018.67134124  .00000005  00000-0 -38824-4 0  9991
2 17177  82.6055  89.1789 0002618 309.2561 220.2670 12.41554781411010
Epoch (UTC): 18 January 2018 16:06:43
Eccentricity: 0.0002618
inclination: 82.6055°
perigee height: 1498 km
apogee height: 1502 km
right ascension of ascending node: 89.1789°
argument of perigee: 309.2561°
revolutions per day: 12.41554781
mean anomaly at epoch: 220.2670°
orbit number at epoch: 41101

The dashed part of the orbit path shows where the satellite is in the earth's shadow,  

DLR